Hourly Weather Chamerovo

Today, 15 June, Tuesday

Time Temperature Precipitation Wind Pressure Humidity
00:00 +14°C° 0 mm 1 mps 749 mmHg 78%
01:00 +13°C° 0 mm 1 mps 749 mmHg 80%
02:00 +13°C° 0 mm 1 mps 749 mmHg 81%
03:00 +14°C° 0 mm 1 mps 749 mmHg 78%
04:00 +15°C° 0 mm 1 mps 749 mmHg 75%
05:00 +16°C° 0 mm 1 mps 749 mmHg 72%
06:00 +19°C° 0 mm 1 mps 749 mmHg 66%
07:00 +20°C° 0 mm 2 mps 748 mmHg 59%
08:00 +23°C° 0 mm 2 mps 748 mmHg 53%
09:00 +23°C° 0 mm 2 mps 748 mmHg 50%
10:00 +24°C° 0 mm 3 mps 747 mmHg 48%
11:00 +25°C° 0 mm 3 mps 747 mmHg 45%
12:00 +25°C° 0 mm 3 mps 747 mmHg 46%
13:00 +25°C° 0 mm 3 mps 746 mmHg 47%
14:00 +25°C° 0 mm 4 mps 746 mmHg 48%
15:00 +26°C° 0 mm 3 mps 746 mmHg 46%
16:00 +26°C° 0 mm 3 mps 745 mmHg 45%
17:00 +26°C° 0 mm 3 mps 745 mmHg 43%
18:00 +24°C° 0 mm 3 mps 745 mmHg 52%
19:00 +21°C° 0 mm 2 mps 745 mmHg 62%
20:00 +18°C° 0 mm 2 mps 745 mmHg 71%
21:00 +17°C° 0 mm 2 mps 745 mmHg 73%
22:00 +17°C° 0 mm 2 mps 745 mmHg 75%
23:00 +16°C° 0 mm 2 mps 745 mmHg 76%

Tomorrow, 16 June, Wednesday

Time Temperature Precipitation Wind Pressure Humidity
00:00 +15°C° 0 mm 2 mps 746 mmHg 80%
01:00 +15°C° 0 mm 2 mps 746 mmHg 84%
02:00 +15°C° 0 mm 2 mps 746 mmHg 88%
03:00 +15°C° 0 mm 2 mps 746 mmHg 87%
04:00 +15°C° 0 mm 2 mps 747 mmHg 87%
05:00 +16°C° 0 mm 2 mps 747 mmHg 86%
06:00 +17°C° 0 mm 3 mps 747 mmHg 71%
07:00 +18°C° 0 mm 3 mps 748 mmHg 57%
08:00 +20°C° 0 mm 4 mps 748 mmHg 42%
09:00 +20°C° 0 mm 4 mps 748 mmHg 39%
10:00 +21°C° 0 mm 4 mps 748 mmHg 36%
11:00 +22°C° 0 mm 4 mps 749 mmHg 32%
12:00 +22°C° 0 mm 4 mps 749 mmHg 31%
13:00 +22°C° 0 mm 5 mps 749 mmHg 30%
14:00 +23°C° 0 mm 5 mps 749 mmHg 28%
15:00 +22°C° 0 mm 4 mps 749 mmHg 31%
16:00 +22°C° 0 mm 4 mps 750 mmHg 33%
17:00 +22°C° 0 mm 4 mps 750 mmHg 35%
18:00 +19°C° 0 mm 3 mps 750 mmHg 43%
19:00 +17°C° 0 mm 3 mps 751 mmHg 50%
20:00 +15°C° 0 mm 2 mps 751 mmHg 58%
21:00 +14°C° 0 mm 2 mps 752 mmHg 60%
22:00 +13°C° 0 mm 2 mps 752 mmHg 62%
23:00 +12°C° 0 mm 2 mps 752 mmHg 64%

Day after tomorrow, 17 June, Thursday

Time Temperature Precipitation Wind Pressure Humidity
00:00 +12°C° 0 mm 2 mps 753 mmHg 67%
01:00 +10°C° 0 mm 2 mps 753 mmHg 69%
02:00 +10°C° 0 mm 2 mps 754 mmHg 71%
03:00 +12°C° 0 mm 2 mps 754 mmHg 70%
04:00 +13°C° 0 mm 2 mps 754 mmHg 68%
05:00 +14°C° 0 mm 2 mps 754 mmHg 66%
06:00 +16°C° 0 mm 2 mps 754 mmHg 59%
07:00 +18°C° 0 mm 2 mps 755 mmHg 53%
08:00 +20°C° 0 mm 3 mps 755 mmHg 46%
09:00 +21°C° 0 mm 3 mps 755 mmHg 43%
10:00 +22°C° 0 mm 4 mps 755 mmHg 40%
11:00 +23°C° 0 mm 4 mps 755 mmHg 36%
12:00 +25°C° 0 mm 4 mps 755 mmHg 35%
13:00 +25°C° 0 mm 4 mps 755 mmHg 33%
14:00 +26°C° 0 mm 4 mps 755 mmHg 32%
15:00 +26°C° 0 mm 4 mps 755 mmHg 34%
16:00 +25°C° 0 mm 3 mps 755 mmHg 37%
17:00 +25°C° 0 mm 3 mps 755 mmHg 39%
18:00 +23°C° 0 mm 2 mps 755 mmHg 47%
19:00 +20°C° 0 mm 2 mps 756 mmHg 55%
20:00 +19°C° 0 mm 1 mps 756 mmHg 63%
21:00 +18°C° 0 mm 1 mps 756 mmHg 66%
22:00 +16°C° 0 mm 1 mps 756 mmHg 68%
23:00 +15°C° 0 mm 1 mps 756 mmHg 71%

18 June, Friday

Time Temperature Precipitation Wind Pressure Humidity
00:00 +14°C° 0 mm 1 mps 757 mmHg 73%
01:00 +14°C° 0 mm 1 mps 757 mmHg 75%
02:00 +13°C° 0 mm 1 mps 757 mmHg 78%
03:00 +15°C° 0 mm 1 mps 757 mmHg 75%
04:00 +16°C° 0 mm 1 mps 757 mmHg 72%
05:00 +18°C° 0 mm 1 mps 757 mmHg 69%
06:00 +20°C° 0 mm 1 mps 757 mmHg 62%
07:00 +21°C° 0 mm 2 mps 757 mmHg 55%
08:00 +24°C° 0 mm 2 mps 757 mmHg 48%
09:00 +25°C° 0 mm 2 mps 757 mmHg 45%
10:00 +26°C° 0 mm 2 mps 757 mmHg 42%
11:00 +27°C° 0 mm 3 mps 757 mmHg 39%
12:00 +28°C° 0 mm 3 mps 757 mmHg 39%
13:00 +28°C° 0 mm 3 mps 756 mmHg 38%
14:00 +29°C° 0 mm 3 mps 756 mmHg 37%
15:00 +29°C° 0 mm 3 mps 756 mmHg 40%
16:00 +29°C° 0 mm 3 mps 755 mmHg 42%
17:00 +28°C° 0 mm 3 mps 755 mmHg 44%
18:00 +26°C° 0 mm 3 mps 755 mmHg 54%
19:00 +24°C° 0 mm 2 mps 755 mmHg 64%
20:00 +21°C° 0 mm 2 mps 755 mmHg 73%
21:00 +20°C° 0 mm 2 mps 755 mmHg 74%
22:00 +19°C° 0 mm 2 mps 755 mmHg 75%
23:00 +18°C° 0 mm 2 mps 755 mmHg 76%

19 June, Saturday

Time Temperature Precipitation Wind Pressure Humidity
00:00 +18°C° 0 mm 2 mps 755 mmHg 79%
01:00 +17°C° 0 mm 3 mps 755 mmHg 81%
02:00 +17°C° 0 mm 3 mps 756 mmHg 83%
03:00 +18°C° 0 mm 3 mps 756 mmHg 80%
04:00 +18°C° 0 mm 3 mps 756 mmHg 76%
05:00 +19°C° 0 mm 3 mps 756 mmHg 73%
06:00 +21°C° 0 mm 3 mps 756 mmHg 67%
07:00 +23°C° 0 mm 4 mps 756 mmHg 60%
08:00 +26°C° 0 mm 4 mps 756 mmHg 54%
09:00 +27°C° 0 mm 4 mps 756 mmHg 49%
10:00 +28°C° 0 mm 4 mps 756 mmHg 44%
11:00 +30°C° 0 mm 4 mps 756 mmHg 40%
12:00 +30°C° 0 mm 4 mps 756 mmHg 38%
13:00 +32°C° 0 mm 4 mps 755 mmHg 37%
14:00 +32°C° 0 mm 4 mps 755 mmHg 35%
15:00 +32°C° 0 mm 4 mps 755 mmHg 38%
16:00 +31°C° 0 mm 3 mps 755 mmHg 41%
17:00 +30°C° 0 mm 3 mps 755 mmHg 44%
18:00 +28°C° 0 mm 3 mps 755 mmHg 52%
19:00 +26°C° 0 mm 2 mps 755 mmHg 61%
20:00 +24°C° 0 mm 2 mps 755 mmHg 69%
21:00 +24°C° 0 mm 2 mps 755 mmHg 70%
22:00 +23°C° 0 mm 2 mps 755 mmHg 71%
23:00 +21°C° 0 mm 2 mps 755 mmHg 73%

20 June, Sunday

Time Temperature Precipitation Wind Pressure Humidity
00:00 +20°C° 0 mm 2 mps 755 mmHg 75%
01:00 +19°C° 0 mm 2 mps 756 mmHg 77%
02:00 +19°C° 0 mm 2 mps 756 mmHg 79%
03:00 +19°C° 0 mm 2 mps 756 mmHg 77%
04:00 +20°C° 0 mm 2 mps 756 mmHg 75%
05:00 +21°C° 0 mm 2 mps 756 mmHg 73%
06:00 +24°C° 0 mm 2 mps 756 mmHg 66%
07:00 +26°C° 0 mm 2 mps 756 mmHg 59%
08:00 +27°C° 0 mm 3 mps 755 mmHg 52%
09:00 +28°C° 0 mm 3 mps 755 mmHg 50%
10:00 +29°C° 0 mm 4 mps 755 mmHg 47%
11:00 +30°C° 0 mm 4 mps 755 mmHg 45%
12:00 +32°C° 0 mm 4 mps 754 mmHg 42%
13:00 +32°C° 0 mm 5 mps 754 mmHg 40%
14:00 +32°C° 0 mm 5 mps 754 mmHg 37%
15:00 +32°C° 0 mm 4 mps 753 mmHg 39%
16:00 +32°C° 0 mm 4 mps 753 mmHg 40%
17:00 +30°C° 0 mm 4 mps 753 mmHg 42%
18:00 +28°C° 0 mm 4 mps 753 mmHg 50%
19:00 +26°C° 0 mm 3 mps 753 mmHg 58%
20:00 +22°C° 0 mm 3 mps 753 mmHg 65%
21:00 +22°C° 0 mm 3 mps 753 mmHg 68%
22:00 +21°C° 0 mm 3 mps 753 mmHg 70%
23:00 +20°C° 0 mm 3 mps 753 mmHg 72%
Show more

We Need Your Consent

Meteoprog and our Service Providers may store and access personal data such as cookies, device identifiers or other similar technologies on your device and process such data to personalise content and ads, as well as provide social media features and to analyse the traffic.

  • Store and/or access information on your device

    Cookies, device identifiers or other information can be stored or accessed on your device for the purposes indicated above.

  • Personalised ads and content, ad and content measurement, audience insights, and products development

    Ads and content can be personalised based on a profile. More data can be added to better personalise ads and content. Ad and content performance can be measured. Insights about the audience who saw the ads and content can be derived. Such data can be used to develop or improve user’s experience, systems and software.

By clicking ‘I Agree’ you will allow the use of indicated cookies, device identifiers, web beacons or other similar technologies. Your settings can be changed in the browser on your device.

For certain purposes, legitimate interests may be relied on, rather than consent. You can read more about this in our Privacy and Cookie Policy.